This is the latest recevied weather packets stored in our database for station/object BARLOW-WX. If no packets are shown the sender has not sent any weather packets the latest 10 day(s).
| Time | Temp. | Humidity | Pressure | Rain* | Wind** | Luminosity | Snow |
|---|---|---|---|---|---|---|---|
| 1787797879 | 18.89° C | 85% | 985 hPa | 0 mm | - | - | - |
| 1787796983 | 19.44° C | 85% | 984.5 hPa | 0 mm | - | - | - |
| 1787796092 | 19.44° C | 84% | 984.5 hPa | 0 mm | - | - | - |
| 1787795176 | 19.44° C | 79% | 984.4 hPa | 0 mm | - | - | - |
| 1787794284 | 20° C | 79% | 984.4 hPa | 0 mm | - | - | - |
| 1787793377 | 19.44° C | 79% | 984.7 hPa | 0 mm | - | - | - |
| 1787792476 | 20° C | 79% | 984.7 hPa | 0 mm | - | - | - |
| 1787791581 | 20° C | 73% | 984.5 hPa | 0 mm | - | - | - |
| 1787790676 | 20.56° C | 73% | 984.5 hPa | 0 mm | - | - | - |
| 1787789780 | 21.11° C | 73% | 984.5 hPa | 0 mm | - | - | - |
| 1787788883 | 21.67° C | 73% | 984.5 hPa | 0 mm | - | - | - |
| 1787787983 | 21.67° C | 68% | 984 hPa | 0 mm | - | - | - |
| 1787787083 | 22.22° C | 67% | 984.1 hPa | 0 mm | - | - | - |
| 1787786181 | 22.78° C | 67% | 984.1 hPa | 0 mm | - | - | - |
| 1787785281 | 22.78° C | 67% | 984.1 hPa | 0 mm | - | - | - |
| 1787784383 | 23.33° C | 70% | 984.4 hPa | 0 mm | - | - | - |
| 1787783483 | 23.89° C | 71% | 984.3 hPa | 0 mm | - | - | - |
| 1787782583 | 23.89° C | 71% | 984.3 hPa | 0 mm | - | - | - |
| 1787781683 | 23.89° C | 71% | 984.3 hPa | 0 mm | - | - | - |
| 1787780783 | 23.89° C | 76% | 984.7 hPa | 0 mm | - | - | - |
| 1787779883 | 23.89° C | 81% | 984.7 hPa | 0 mm | - | - | - |
| 1787778982 | 23.33° C | 81% | 984.7 hPa | 0 mm | - | - | - |
| 1787778082 | 23.89° C | 81% | 984.7 hPa | 0 mm | - | - | - |
| 1787777182 | 22.78° C | 81% | 984.2 hPa | 0 mm | - | - | - |
| 1787776282 | 23.89° C | 81% | 983.8 hPa | 0 mm | - | - | - |
* Rain latest hour (hover to see other rain measurements)
** Current wind speed in m/s (hover to see current wind gust speed)